Location: Hermaringen
(48.5952°N, 10.2585°E)
Time: 21:42:34
(UTC+00:00)

Cosmos 1140 Rocket - Pass Details

Date: 18 November 2025
Orbit: 740 x 761 km, 74.1° (Epoch: 05 December)

Event Time Altitude Azimuth Distance (km) Brightness Sun altitude
Rises 16:52:15 0° 216° (SW) 3,198 7.6 -12.5°
Reaches altitude 10° 16:54:40 10° 222° (SW) 2,274 6.9 -12.9°
Maximum altitude 16:59:42 52° 298° (WNW) 937 4.3 -13.7°
Drops below altitude 10° 17:04:44 10° 15° (NNE) 2,276 5.7 -14.5°
Enters shadow 17:06:30 - 19° (NNE) 2,946 6.2 -14.8°
